K5RLH Weather Reports


time (UTC)temp
C
wind
direction
speed
KPH
gust
KPH
rain 1hr
cm
rain 24hr
cm
rain mn
cm
humidity
%
barometer
mb
20260906175313 32 147 9.7 14.5 0.00 0.00 0.00 7 1015.0
20260906174814 32 163 11.3 14.5 0.00 0.00 0.00 7 1015.0
20260906174313 32 127 4.8 8.0 0.00 0.00 0.00 7 1016.0
20260906173813 32 171 11.3 14.5 0.00 0.00 0.00 7 1016.0
20260906173315 32 169 8.0 14.5 0.00 0.00 0.00 7 1016.0
20260906172813 32 185 6.4 9.7 0.00 0.00 0.00 7 1016.0
20260906172314 32 185 4.8 8.0 0.00 0.00 0.00 7 1016.0
20260906171813 32 154 6.4 9.7 0.00 0.00 0.00 7 1016.0
20260906171313 32 151 4.8 8.0 0.00 0.00 0.00 7 1016.0
20260906170815 32 145 6.4 9.7 0.00 0.00 0.00 7 1016.0
20260906170314 32 158 8.0 9.7 0.00 0.00 0.00 7 1016.0
20260906165814 32 125 3.2 4.8 0.00 0.00 0.00 7 1016.0
20260906165313 32 121 3.2 4.8 0.00 0.00 0.00 7 1016.0
20260906164814 32 110 4.8 6.4 0.00 0.00 0.00 7 1016.0
20260906164314 32 138 3.2 4.8 0.00 0.00 0.00 7 1016.0
20260906163813 32 112 3.2 6.4 0.00 0.00 0.00 7 1016.0
20260906163313 32 126 4.8 8.0 0.00 0.00 0.00 7 1016.0
20260906162813 32 135 6.4 9.7 0.00 0.00 0.00 7 1016.0
20260906162313 32 111 4.8 6.4 0.00 0.00 0.00 7 1016.0
20260906161814 32 90 4.8 6.4 0.00 0.00 0.00 7 1016.0
20260906161313 32 104 4.8 8.0 0.00 0.00 0.00 7 1016.0
20260906160813 32 153 6.4 9.7 0.00 0.00 0.00 7 1016.0
20260906160313 32 159 6.4 9.7 0.00 0.00 0.00 7 1016.0
20260906155813 32 117 4.8 6.4 0.00 0.00 0.00 7 1016.0
20260906155313 32 120 6.4 6.4 0.00 0.00 0.00 7 1016.0
20260906154815 31 114 4.8 8.0 0.00 0.00 0.00 7 1016.0
20260906154314 31 120 6.4 9.7 0.00 0.00 0.00 7 1016.0
20260906153813 31 154 4.8 6.4 0.00 0.00 0.00 7 1016.0
20260906153314 31 148 6.4 9.7 0.00 0.00 0.00 7 1016.0
20260906152813 31 102 3.2 4.8 0.00 0.00 0.00 7 1016.0
20260906152314 31 76 3.2 4.8 0.00 0.00 0.00 7 1016.0
20260906151813 31 101 4.8 6.4 0.00 0.00 0.00 7 1016.0
20260906151313 31 128 4.8 6.4 0.00 0.00 0.00 7 1016.0
20260906150813 30 75 3.2 4.8 0.00 0.00 0.00 7 1016.0
20260906150313 30 74 4.8 6.4 0.00 0.00 0.00 7 1016.0
20260906145813 30 115 6.4 8.0 0.00 0.00 0.00 7 1016.0
20260906145313 30 65 4.8 6.4 0.00 0.00 0.00 7 1016.0
20260906144813 29 99 4.8 6.4 0.00 0.00 0.00 7 1016.0
20260906144314 29 110 4.8 6.4 0.00 0.00 0.00 7 1016.0
20260906143814 28 102 4.8 9.7 0.00 0.00 0.00 7 1016.0
20260906143313 28 81 6.4 8.0 0.00 0.00 0.00 7 1016.0
20260906142813 28 103 6.4 8.0 0.00 0.00 0.00 7 1016.0
20260906142313 28 84 4.8 4.8 0.00 0.00 0.00 7 1016.0
20260906141813 28 98 4.8 6.4 0.00 0.00 0.00 7 1016.0
20260906141313 28 110 4.8 6.4 0.00 0.00 0.00 7 1016.0
20260906140813 28 91 1.6 3.2 0.00 0.00 0.00 7 1016.0
20260906140314 28 111 4.8 6.4 0.00 0.00 0.00 7 1016.0
20260906135813 28 86 1.6 3.2 0.00 0.00 0.00 7 1016.0
20260906135314 29 63 3.2 3.2 0.00 0.00 0.00 7 1016.0
20260906134813 28 28 1.6 3.2 0.00 0.00 0.00 7 1016.0
20260906134314 28 257 3.2 6.4 0.00 0.00 0.00 7 1016.0
20260906133815 27 107 0.0 1.6 0.00 0.00 0.00 7 1016.0
20260906133313 26 51 1.6 3.2 0.00 0.00 0.00 7 1016.0
20260906132813 26 19 1.6 4.8 0.00 0.00 0.00 7 1016.0
20260906132313 25 20 0.0 1.6 0.00 0.00 0.00 7 1016.0
20260906131813 25 22 1.6 3.2 0.00 0.00 0.00 7 1016.0
20260906131313 24 347 1.6 3.2 0.00 0.00 0.00 7 1016.0
20260906130813 24 336 1.6 3.2 0.00 0.00 0.00 7 1016.0
20260906130313 24 316 1.6 3.2 0.00 0.00 0.00 7 1016.0
20260906125814 24 341 1.6 1.6 0.00 0.00 0.00 7 1016.0
20260906125313 23 203 0.0 1.6 0.00 0.00 0.00 7 1016.0
20260906124813 23 135 1.6 3.2 0.00 0.00 0.00 7 1015.0
20260906124314 22 93 1.6 6.4 0.00 0.00 0.00 7 1015.0
20260906123813 22 79 1.6 4.8 0.00 0.00 0.00 7 1015.0
20260906123313 22 62 1.6 3.2 0.00 0.00 0.00 7 1015.0
20260906122813 22 59 3.2 3.2 0.00 0.00 0.00 7 1015.0
20260906122314 22 43 3.2 8.0 0.00 0.00 0.00 7 1015.0
20260906121813 22 261 3.2 6.4 0.00 0.00 0.00 7 1015.0
20260906121314 22 231 4.8 8.0 0.00 0.00 0.00 7 1015.0
20260906120813 22 81 4.8 8.0 0.00 0.00 0.00 7 1015.0
20260906120313 22 223 3.2 6.4 0.00 0.00 0.00 7 1015.0
20260906115813 22 48 1.6 6.4 0.00 0.00 0.00 7 1015.0
20260906115313 22 198 3.2 4.8 0.00 0.00 0.00 7 1015.0
20260906114813 21 204 3.2 3.2 0.00 0.00 0.00 7 1015.0
20260906114313 22 204 1.6 4.8 0.00 0.00 0.00 7 1015.0
20260906113817 22 221 1.6 3.2 0.00 0.00 0.00 7 1015.0
20260906113313 22 220 1.6 6.4 0.00 0.00 0.00 7 1015.0
20260906112813 22 93 1.6 3.2 0.00 0.00 0.00 7 1015.0
20260906112314 22 233 3.2 6.4 0.00 0.00 0.00 7 1015.0
20260906111813 22 201 1.6 4.8 0.00 0.00 0.00 7 1015.0
20260906111313 22 74 1.6 3.2 0.00 0.00 0.00 7 1015.0
20260906110813 22 54 3.2 4.8 0.00 0.00 0.00 7 1015.0
20260906110313 22 324 6.4 9.7 0.00 0.00 0.00 7 1015.0
20260906105813 22 259 6.4 9.7 0.00 0.00 0.00 7 1015.0
20260906105313 22 261 3.2 4.8 0.00 0.00 0.00 7 1015.0
20260906104813 22 225 3.2 6.4 0.00 0.00 0.00 7 1015.0
20260906104314 22 300 3.2 4.8 0.00 0.00 0.00 7 1015.0
20260906103813 22 278 1.6 3.2 0.00 0.00 0.00 7 1015.0
20260906103314 22 275 3.2 4.8 0.00 0.00 0.00 7 1015.0
20260906102813 22 336 3.2 9.7 0.00 0.00 0.00 7 1015.0
20260906102313 23 28 6.4 9.7 0.00 0.00 0.00 7 1015.0
20260906101813 23 318 4.8 6.4 0.00 0.00 0.00 7 1015.0
20260906101313 23 26 3.2 6.4 0.00 0.00 0.00 7 1015.0
20260906100815 23 335 3.2 3.2 0.00 0.00 0.00 7 1015.0
20260906100313 23 284 3.2 6.4 0.00 0.00 0.00 7 1015.0
20260906095813 23 280 1.6 3.2 0.00 0.00 0.00 7 1015.0
20260906095317 23 336 3.2 3.2 0.00 0.00 0.00 7 1015.0
20260906094813 23 243 1.6 4.8 0.00 0.00 0.00 7 1015.0
20260906094313 23 270 3.2 3.2 0.00 0.00 0.00 7 1015.0
20260906093815 23 315 1.6 3.2 0.00 0.00 0.00 7 1014.0
20260906093313 23 260 1.6 3.2 0.00 0.00 0.00 7 1014.0
20260906092813 23 313 3.2 4.8 0.00 0.00 0.00 7 1014.0
20260906092313 23 324 4.8 4.8 0.00 0.00 0.00 7 1014.0
20260906091813 23 313 3.2 3.2 0.00 0.00 0.00 7 1014.0
20260906091313 23 292 3.2 4.8 0.00 0.00 0.00 7 1014.0
20260906090813 23 303 3.2 4.8 0.00 0.00 0.00 7 1014.0
20260906090314 23 272 3.2 4.8 0.00 0.00 0.00 7 1014.0
20260906085813 23 297 3.2 4.8 0.00 0.00 0.00 7 1014.0
20260906085313 23 308 3.2 4.8 0.00 0.00 0.00 7 1014.0
20260906084813 23 286 3.2 6.4 0.00 0.00 0.00 7 1014.0
20260906084313 24 251 1.6 3.2 0.00 0.00 0.00 7 1014.0
20260906083813 24 279 1.6 4.8 0.00 0.00 0.00 7 1014.0
20260906083313 25 357 3.2 4.8 0.00 0.00 0.00 7 1014.0
20260906082814 25 3 3.2 3.2 0.00 0.00 0.00 7 1014.0
20260906082313 25 342 3.2 3.2 0.00 0.00 0.00 7 1014.0
20260906081813 25 335 3.2 3.2 0.00 0.00 0.00 7 1014.0
20260906081313 24 327 3.2 3.2 0.00 0.00 0.00 7 1014.0
20260906080814 24 15 1.6 3.2 0.00 0.00 0.00 7 1014.0
20260906080313 24 48 3.2 4.8 0.00 0.00 0.00 7 1014.0
20260906075813 23 24 3.2 6.4 0.00 0.00 0.00 7 1014.0
20260906075313 24 7 1.6 3.2 0.00 0.00 0.00 7 1014.0
20260906074813 24 353 3.2 4.8 0.00 0.00 0.00 7 1014.0
20260906074313 25 357 3.2 4.8 0.00 0.00 0.00 7 1014.0
20260906073813 25 357 3.2 4.8 0.00 0.00 0.00 7 1014.0
20260906073313 25 360 3.2 3.2 0.00 0.00 0.00 7 1014.0
20260906072813 25 104 1.6 1.6 0.00 0.00 0.00 7 1014.0
20260906072313 25 154 1.6 3.2 0.00 0.00 0.00 7 1014.0
20260906071813 25 24 1.6 1.6 0.00 0.00 0.00 7 1014.0
20260906071313 25 58 1.6 3.2 0.00 0.00 0.00 7 1014.0
20260906070816 25 43 1.6 3.2 0.00 0.00 0.00 7 1014.0
20260906070313 26 28 3.2 4.8 0.00 0.00 0.00 7 1014.0
20260906065813 26 15 3.2 3.2 0.00 0.00 0.00 7 1014.0
20260906065313 26 20 1.6 3.2 0.00 0.00 0.00 7 1014.0
20260906064813 26 27 3.2 4.8 0.00 0.00 0.00 7 1014.0
20260906064313 26 45 1.6 3.2 0.00 0.00 0.00 7 1014.0
20260906063813 26 96 0.0 1.6 0.00 0.00 0.00 7 1014.0
20260906063313 26 132 1.6 3.2 0.00 0.00 0.00 7 1014.0
20260906062814 26 161 1.6 3.2 0.00 0.00 0.00 7 1014.0
20260906062313 26 149 3.2 3.2 0.00 0.00 0.00 7 1014.0
20260906061813 26 130 1.6 3.2 0.00 0.00 0.00 7 1014.0
20260906061313 26 125 3.2 3.2 0.00 0.00 0.00 7 1014.0
20260906060813 26 106 3.2 3.2 0.00 0.00 0.00 7 1014.0
20260906060313 26 122 1.6 3.2 0.00 0.00 0.00 7 1014.0
20260906055813 27 151 3.2 4.8 0.00 0.00 0.00 7 1014.0
20260906055313 27 140 3.2 4.8 0.00 0.00 0.00 7 1014.0
20260906054813 27 120 4.8 4.8 0.00 0.00 0.00 7 1014.0
20260906054313 27 121 3.2 4.8 0.00 0.00 0.00 7 1014.0
20260906053813 27 124 3.2 4.8 0.00 0.00 0.00 7 1014.0
20260906053313 27 119 4.8 4.8 0.00 0.00 0.00 7 1014.0
20260906052813 27 133 1.6 3.2 0.00 0.00 0.00 7 1014.0
20260906052313 27 143 3.2 3.2 0.00 0.00 0.00 7 1014.0
20260906051813 27 153 3.2 4.8 0.00 0.00 0.00 7 1014.0
20260906051313 27 150 1.6 3.2 0.00 0.00 0.00 7 1014.0
20260906050813 27 127 3.2 3.2 0.00 0.00 0.00 7 1014.0
20260906050313 27 126 3.2 4.8 0.00 0.00 0.00 7 1014.0
20260906045814 27 131 1.6 3.2 0.00 0.00 0.00 7 1014.0
20260906045313 28 121 3.2 3.2 0.00 0.00 0.00 7 1014.0
20260906044813 28 142 3.2 3.2 0.00 0.00 0.00 7 1014.0
20260906044313 28 162 6.4 8.0 0.00 0.00 0.00 7 1014.0
20260906043813 28 160 8.0 9.7 0.00 0.00 0.00 7 1014.0
20260906043315 28 162 6.4 8.0 0.00 0.00 0.00 7 1014.0
20260906042813 28 165 8.0 9.7 0.00 0.00 0.00 7 1014.0
20260906042313 28 161 8.0 9.7 0.00 0.00 0.00 7 1014.0
20260906041813 28 165 6.4 8.0 0.00 0.00 0.00 7 1014.0
20260906041313 28 172 8.0 8.0 0.00 0.00 0.00 7 1014.0
20260906040813 28 174 8.0 9.7 0.00 0.00 0.00 7 1014.0
20260906040313 28 189 6.4 8.0 0.00 0.00 0.00 7 1014.0
20260906035815 28 197 4.8 6.4 0.00 0.00 0.00 7 1014.0
20260906035313 28 182 6.4 6.4 0.00 0.00 0.00 7 1014.0
20260906034813 28 171 3.2 4.8 0.00 0.00 0.00 7 1014.0
20260906034313 28 150 3.2 4.8 0.00 0.00 0.00 7 1014.0
20260906033813 28 139 3.2 3.2 0.00 0.00 0.00 7 1014.0
20260906033314 28 136 3.2 4.8 0.00 0.00 0.00 7 1014.0
20260906032813 28 140 3.2 3.2 0.00 0.00 0.00 7 1014.0
20260906032314 28 148 3.2 4.8 0.00 0.00 0.00 7 1014.0
20260906031813 28 162 3.2 4.8 0.00 0.00 0.00 7 1014.0
20260906031313 28 163 3.2 4.8 0.00 0.00 0.00 7 1014.0
20260906030813 28 160 3.2 4.8 0.00 0.00 0.00 7 1014.0
20260906030313 28 188 3.2 4.8 0.00 0.00 0.00 7 1014.0
20260906025813 28 192 3.2 3.2 0.00 0.00 0.00 7 1014.0
20260906025314 28 141 3.2 6.4 0.00 0.00 0.00 7 1014.0
20260906024813 28 128 3.2 4.8 0.00 0.00 0.00 7 1014.0
20260906024315 29 123 3.2 6.4 0.00 0.00 0.00 7 1014.0
20260906023813 29 159 3.2 3.2 0.00 0.00 0.00 7 1014.0
20260906023313 29 161 3.2 3.2 0.00 0.00 0.00 7 1013.0
20260906022813 29 137 3.2 3.2 0.00 0.00 0.00 7 1013.0
20260906022313 29 130 3.2 3.2 0.00 0.00 0.00 7 1013.0
20260906021813 30 106 1.6 3.2 0.00 0.00 0.00 7 1013.0
20260906021314 30 114 3.2 3.2 0.00 0.00 0.00 7 1013.0
20260906020813 30 107 1.6 3.2 0.00 0.00 0.00 7 1013.0
20260906020313 30 109 1.6 3.2 0.00 0.00 0.00 7 1013.0
20260906015815 30 101 1.6 3.2 0.00 0.00 0.00 7 1013.0
20260906015313 30 100 3.2 3.2 0.00 0.00 0.00 7 1013.0
20260906014814 30 100 3.2 3.2 0.00 0.00 0.00 7 1013.0
20260906014314 30 91 3.2 3.2 0.00 0.00 0.00 7 1013.0
20260906013813 30 91 3.2 3.2 0.00 0.00 0.00 7 1013.0
20260906013313 30 87 3.2 3.2 0.00 0.00 0.00 7 1013.0
20260906012813 30 91 3.2 4.8 0.00 0.00 0.00 7 1013.0
20260906012313 30 83 1.6 3.2 0.00 0.00 0.00 7 1013.0
20260906011813 31 62 1.6 3.2 0.00 0.00 0.00 7 1013.0
20260906011313 31 66 3.2 3.2 0.00 0.00 0.00 7 1013.0
20260906010814 31 79 3.2 3.2 0.00 0.00 0.00 7 1012.0
20260906010313 31 73 3.2 3.2 0.00 0.00 0.00 7 1012.0
20260906005813 31 80 3.2 3.2 0.00 0.00 0.00 7 1012.0
20260906005313 31 77 3.2 4.8 0.00 0.00 0.00 7 1012.0
20260906004813 31 71 3.2 4.8 0.00 0.00 0.00 7 1012.0
20260906004313 32 79 3.2 3.2 0.00 0.00 0.00 7 1012.0
20260906003813 32 88 3.2 3.2 0.00 0.00 0.00 7 1012.0
20260906003313 32 86 3.2 4.8 0.00 0.00 0.00 7 1012.0
20260906002813 32 73 4.8 6.4 0.00 0.00 0.00 7 1012.0
20260906002313 32 74 3.2 4.8 0.00 0.00 0.00 7 1012.0
20260906001813 32 73 3.2 4.8 0.00 0.00 0.00 7 1012.0
20260906001313 33 71 3.2 4.8 0.00 0.00 0.00 7 1012.0
20260906000813 33 65 3.2 4.8 0.00 0.00 0.00 7 1012.0
20260906000313 33 60 3.2 4.8 0.00 0.00 0.00 7 1012.0
20260905235813 33 53 3.2 4.8 0.00 0.00 0.00 7 1012.0
20260905235316 34 59 3.2 4.8 0.00 0.00 0.00 7 1012.0
20260905234813 34 54 1.6 3.2 0.00 0.00 0.00 7 1012.0
20260905234313 34 65 3.2 3.2 0.00 0.00 0.00 7 1012.0
20260905233814 34 53 1.6 3.2 0.00 0.00 0.00 7 1012.0
20260905233316 34 53 1.6 3.2 0.00 0.00 0.00 7 1012.0
20260905232813 34 58 1.6 3.2 0.00 0.00 0.00 7 1012.0
20260905232313 34 62 1.6 3.2 0.00 0.00 0.00 7 1012.0
20260905231813 34 65 3.2 4.8 0.00 0.00 0.00 7 1012.0
20260905231313 34 66 0.0 3.2 0.00 0.00 0.00 7 1012.0
20260905230814 34 44 1.6 3.2 0.00 0.00 0.00 7 1012.0
20260905230314 35 51 1.6 3.2 0.00 0.00 0.00 7 1012.0
20260905225813 35 49 3.2 3.2 0.00 0.00 0.00 7 1012.0
20260905225313 35 73 1.6 3.2 0.00 0.00 0.00 7 1012.0
20260905224817 35 70 3.2 3.2 0.00 0.00 0.00 7 1012.0
20260905224313 35 85 0.0 3.2 0.00 0.00 0.00 7 1012.0
20260905223813 35 77 3.2 4.8 0.00 0.00 0.00 7 1012.0
20260905223313 35 85 1.6 3.2 0.00 0.00 0.00 7 1012.0
20260905222813 35 80 3.2 3.2 0.00 0.00 0.00 7 1012.0
20260905222313 35 70 1.6 3.2 0.00 0.00 0.00 7 1012.0
20260905221813 35 90 3.2 4.8 0.00 0.00 0.00 7 1012.0
20260905221314 35 89 3.2 4.8 0.00 0.00 0.00 7 1012.0
20260905220813 35 110 3.2 4.8 0.00 0.00 0.00 7 1012.0
20260905220314 36 99 3.2 4.8 0.00 0.00 0.00 7 1012.0
20260905215813 36 92 4.8 6.4 0.00 0.00 0.00 7 1012.0
20260905215313 36 95 3.2 4.8 0.00 0.00 0.00 7 1012.0
20260905214813 36 115 3.2 4.8 0.00 0.00 0.00 7 1012.0
20260905214314 35 88 3.2 4.8 0.00 0.00 0.00 7 1012.0
20260905213813 36 99 3.2 4.8 0.00 0.00 0.00 7 1013.0
20260905213313 36 74 4.8 6.4 0.00 0.00 0.00 7 1013.0
20260905212813 36 111 6.4 9.7 0.00 0.00 0.00 7 1013.0
20260905212313 36 130 3.2 6.4 0.00 0.00 0.00 7 1013.0
20260905211813 36 90 4.8 9.7 0.00 0.00 0.00 7 1013.0
20260905211313 36 118 6.4 12.9 0.00 0.00 0.00 7 1013.0
20260905210815 36 113 4.8 6.4 0.00 0.00 0.00 7 1013.0
20260905210313 37 112 6.4 8.0 0.00 0.00 0.00 7 1013.0
20260905205813 37 112 3.2 6.4 0.00 0.00 0.00 7 1013.0
20260905205340 37 108 6.4 9.7 0.00 0.00 0.00 7 1013.0
20260905204813 36 185 4.8 9.7 0.00 0.00 0.00 7 1013.0
20260905204313 36 122 6.4 8.0 0.00 0.00 0.00 7 1013.0
20260905203813 36 183 9.7 12.9 0.00 0.00 0.00 7 1013.0
20260905203313 36 132 6.4 11.3 0.00 0.00 0.00 7 1013.0
20260905202813 36 122 8.0 11.3 0.00 0.00 0.00 7 1013.0
20260905202314 36 173 3.2 6.4 0.00 0.00 0.00 7 1013.0
20260905201814 36 123 4.8 6.4 0.00 0.00 0.00 7 1014.0
20260905201313 36 171 11.3 14.5 0.00 0.00 0.00 7 1014.0
20260905200814 36 105 4.8 6.4 0.00 0.00 0.00 7 1014.0
20260905200313 36 118 4.8 9.7 0.00 0.00 0.00 7 1014.0
20260905195813 36 163 11.3 14.5 0.00 0.00 0.00 7 1014.0
20260905195313 36 171 8.0 11.3 0.00 0.00 0.00 7 1014.0
20260905194814 36 118 4.8 4.8 0.00 0.00 0.00 7 1014.0
20260905194313 36 91 4.8 6.4 0.00 0.00 0.00 7 1014.0
20260905193814 36 115 8.0 11.3 0.00 0.00 0.00 7 1014.0
20260905193313 36 121 8.0 11.3 0.00 0.00 0.00 7 1014.0
20260905192815 36 172 9.7 14.5 0.00 0.00 0.00 7 1014.0
20260905192314 36 97 8.0 9.7 0.00 0.00 0.00 7 1014.0
20260905191814 36 110 4.8 6.4 0.00 0.00 0.00 7 1014.0
20260905191314 36 164 6.4 12.9 0.00 0.00 0.00 7 1014.0
20260905190813 36 185 8.0 12.9 0.00 0.00 0.00 7 1014.0
20260905190315 36 155 3.2 6.4 0.00 0.00 0.00 7 1014.0
20260905185813 36 155 8.0 14.5 0.00 0.00 0.00 7 1014.0
20260905185314 36 149 8.0 14.5 0.00 0.00 0.00 7 1014.0
20260905184814 36 203 9.7 11.3 0.00 0.00 0.00 7 1014.0
20260905184313 35 190 8.0 11.3 0.00 0.00 0.00 7 1014.0
20260905183814 35 148 9.7 12.9 0.00 0.00 0.00 7 1014.0
20260905183315 35 124 6.4 9.7 0.00 0.00 0.00 7 1015.0
20260905182813 35 173 9.7 12.9 0.00 0.00 0.00 7 1015.0
20260905182314 35 163 8.0 14.5 0.00 0.00 0.00 7 1015.0
20260905181813 35 165 11.3 14.5 0.00 0.00 0.00 7 1015.0
20260905181313 35 155 12.9 16.1 0.00 0.00 0.00 7 1015.0
20260905180813 35 122 8.0 9.7 0.00 0.00 0.00 7 1015.0
20260905180314 35 156 8.0 12.9 0.00 0.00 0.00 7 1015.0
20260905175814 35 158 6.4 9.7 0.00 0.00 0.00 7 1015.0